[[{"header":{"parameterUnit":"m.s-1","parameterCategory":1,"la1":30.2991,"la2":30.254,"lo1":-89.0895,"lo2":-89.0444,"dy":0.0017,"dx":0.0017,"nx":28,"ny":28,"refTime":"2026-01-05T09:00:00:Z","depth":0,"parameterNumber":2,"parameterNumberName":"U-component_of_WINDS"},"data":[0,0,0,0,0,0,0,0,0,0,0,0,0,0,0,0,0,0,0,0,0,0,0,0,0,0,0,0,0,0,0,0,0,0,0,0,0,0,0,0,0,0,0,0,0,0,0,0,0,0,0,0,0,0,0,0,0,0,0.2829,0.283,0,0.2936,0.2937,0.2938,0.3007,0.3008,0.3008,0.3009,0.3122,0.3124,0.3127,0,0,0,0,0,0,0,0,0,0,0,0,0,0.269,0.2692,0.2829,0.283,0.2831,0.2936,0.2937,0.2939,0.3007,0.3008,0.3008,0.3009,0.3121,0.3124,0.3127,0,0,0,0,0,0,0,0,0,0,0,0,0,0.2769,0.2693,0.2829,0.2878,0.2884,0.2935,0.2937,0.2939,0.3007,0.3008,0.3008,0.3009,0.312,0.3124,0.3127,0.3139,0,0,0.3139,0.3141,0,0,0,0,0,0,0,0,0.2764,0.2774,0.287,0.2875,0.2881,0.2959,0.293,0.3006,0.3007,0.296,0.3009,0.3009,0.3067,0.3075,0.3094,0.3144,0.3149,0.314,0.3142,0.3144,0.3145,0,0,0,0,0,0,0,0.2759,0.277,0.2871,0.2871,0.2878,0.2897,0.2909,0.2944,0.3009,0.2964,0.297,0.2981,0.307,0.309,0.3097,0.3151,0.314,0.3143,0.3146,0.3147,0.322,0.322,0,0,0,0,0,0,0.2745,0.2765,0.2868,0.2874,0.2823,0.2899,0.2912,0.2933,0.3009,0.3021,0.2981,0.2984,0.3083,0.3093,0.3102,0.3123,0.3144,0.3147,0.315,0.3221,0.322,0.322,0,0,0,0,0,0,0.2741,0.2753,0.2864,0.2821,0.2837,0.2901,0.2924,0.2935,0.2955,0.3021,0.3033,0.2989,0.3084,0.3096,0.313,0.3127,0.3149,0.3153,0.3221,0.322,0.322,0.3163,0,0,0,0,0,0,0.2737,0.2752,0.2755,0.2821,0.2838,0.2888,0.2923,0.2937,0.2961,0.2967,0.3032,0.3043,0.3086,0.3124,0.3134,0.3133,0.3156,0.3222,0.3221,0.322,0.3165,0.316,0.3156,0,0,0,0,0,0.2732,0.2735,0.2755,0.2767,0.2844,0.2887,0.2898,0.2946,0.296,0.2966,0.3009,0.3041,0.3126,0.3126,0.3138,0.3139,0.3222,0.3221,0.322,0.3167,0.3161,0.3156,0,0,0,0,0,0,0.2667,0.2744,0.2767,0.2791,0.2832,0.2899,0.2907,0.2937,0.2976,0.298,0.3038,0.3053,0.3081,0.3114,0.3113,0.3156,0.3178,0.3179,0.3134,0.3129,0.3124,0.3116,0.3159,0,0,0,0,0,0.2656,0.2683,0.2749,0.2764,0.2784,0.2841,0.2862,0.2896,0.2941,0.2959,0.3005,0.3049,0.3086,0.3109,0.3147,0.317,0.3187,0.3177,0.3173,0.3168,0.3169,0.3187,0.3184,0.3217,0.3217,0.3217,0,0,0.2632,0.2678,0.2691,0.2752,0.2788,0.2817,0.2856,0.2884,0.2907,0.2964,0.2999,0.3034,0.3088,0.3117,0.3132,0.3145,0.3164,0.3167,0.3164,0.3167,0.3186,0.3183,0.318,0.3216,0.3216,0.3216,0,0,0.2604,0.264,0.2658,0.2693,0.2747,0.2787,0.2791,0.2854,0.2879,0.2915,0.2959,0.2989,0.305,0.3088,0.3115,0.3105,0.3137,0.3116,0.3092,0.3109,0.3106,0.3105,0.3103,0.3102,0.3116,0.3116,0.3116,0,0.2568,0.2612,0.2663,0.269,0.2717,0.277,0.2789,0.2822,0.2886,0.2904,0.2917,0.2998,0.3038,0.3078,0.3076,0.3095,0.3104,0.3108,0.3102,0.3101,0.31,0.3099,0.3098,0.3113,0.3114,0.3114,0.3114,0,0.2567,0.2597,0.2605,0.2665,0.2693,0.2716,0.2772,0.2795,0.2827,0.2865,0.2903,0.2953,0.3003,0.3015,0.3047,0.3061,0.3068,0.3091,0.3114,0.3093,0.3094,0.3094,0.3109,0.311,0.3111,0.3112,0,0,0.2498,0.2589,0.2591,0.262,0.2685,0.2711,0.2738,0.2786,0.2806,0.2849,0.2875,0.2928,0.295,0.2981,0.3018,0.3032,0.3025,0.3054,0.3057,0.3048,0.3047,0.3029,0.3028,0.3046,0.3047,0.3047,0.3043,0,0.2481,0.2531,0.2579,0.2612,0.2642,0.2695,0.2719,0.2763,0.2801,0.2834,0.2876,0.2913,0.2939,0.2959,0.2976,0.3021,0.3025,0.3023,0.3073,0.3074,0.3058,0.3028,0.3009,0.3003,0.3043,0.3043,0.3043,0,0.2467,0.2508,0.2544,0.2609,0.2624,0.2644,0.2694,0.2725,0.2777,0.2804,0.2839,0.2879,0.2913,0.2933,0.2982,0.2979,0.3003,0.3029,0.303,0.3037,0.3057,0.3035,0.3002,0.3001,0.3044,0.3044,0.3044,0,0.2415,0.248,0.2511,0.2534,0.261,0.2624,0.2657,0.271,0.2737,0.2782,0.2801,0.2849,0.2875,0.2913,0.2965,0.2974,0.301,0.3033,0.3035,0.3034,0.304,0.3039,0.3011,0.3054,0.3054,0.3054,0.3054,0,0.2391,0.2411,0.2489,0.2508,0.2534,0.259,0.2615,0.2653,0.27,0.2729,0.2778,0.2805,0.2872,0.2908,0.2949,0.2985,0.2997,0.3021,0.3032,0.3017,0.3014,0.3033,0.3035,0.3054,0.3054,0.3054,0.3054,0,0.2337,0.239,0.2427,0.2497,0.2516,0.2532,0.2593,0.2615,0.2656,0.2693,0.2705,0.277,0.2815,0.2871,0.2934,0.2962,0.2995,0.3011,0.2976,0.2983,0.2982,0.2981,0.2966,0.2968,0.3008,0.3007,0.3007,0,0.2318,0.2335,0.2408,0.2431,0.2462,0.2498,0.2526,0.2584,0.2612,0.2675,0.269,0.2739,0.278,0.285,0.2905,0.2954,0.2972,0.2964,0.298,0.2966,0.2974,0.2973,0.2976,0.2959,0.2959,0.2958,0.2957,0,0.2279,0.2306,0.2344,0.2392,0.2425,0.2466,0.2509,0.2526,0.2593,0.2623,0.2669,0.2701,0.2767,0.2815,0.2872,0.2909,0.2945,0.2952,0.2955,0.294,0.292,0.2933,0.2966,0.2952,0.2953,0.2953,0.2953,0.2953,0.2244,0.2262,0.2317,0.2359,0.2399,0.2439,0.2464,0.2509,0.2548,0.2605,0.2638,0.2683,0.274,0.282,0.2855,0.2894,0.2907,0.2911,0.2912,0.2913,0.2909,0.2914,0.2904,0.2905,0.2905,0.2905,0.2905,0,0.2209,0.2247,0.2286,0.2345,0.2379,0.2411,0.2461,0.2488,0.2528,0.2576,0.2617,0.2672,0.2721,0.278,0.2833,0.2853,0.2871,0.2865,0.2864,0.2873,0.2893,0.2886,0.2849,0.2849,0.2849,0.2849,0.2849,0.2849,0.2194,0.2229,0.2262,0.2318,0.2357,0.2402,0.2428,0.2467,0.2507,0.2565,0.2606,0.2644,0.2698,0.2756,0.2803,0.282,0.2838,0.2827,0.2848,0.2866,0.2871,0.2876,0.2869,0.283,0.283,0.2825,0.2825,0.2825]},{"header":{"parameterUnit":"m.s-1","parameterCategory":1,"la1":30.2991,"la2":30.254,"lo1":-89.0895,"lo2":-89.0444,"dy":0.0017,"dx":0.0017,"nx":28,"ny":28,"refTime":"2026-01-05T09:00:00:Z","depth":0,"parameterNumber":3,"parameterNumberName":"V-component_of_WINDS"},"data":[0,0,0,0,0,0,0,0,0,0,0,0,0,0,0,0,0,0,0,0,0,0,0,0,0,0,0,0,0,0,0,0,0,0,0,0,0,0,0,0,0,0,0,0,0,0,0,0,0,0,0,0,0,0,0,0,0,0,3.0807,3.0807,0,3.0847,3.0848,3.0848,3.0869,3.0869,3.0869,3.0869,3.0906,3.0907,3.0908,0,0,0,0,0,0,0,0,0,0,0,0,0,3.0747,3.0748,3.0807,3.0808,3.0808,3.0847,3.0848,3.0848,3.0869,3.0869,3.0869,3.0869,3.0905,3.0906,3.0908,0,0,0,0,0,0,0,0,0,0,0,0,0,3.0779,3.0748,3.0807,3.0823,3.0825,3.0847,3.0848,3.0848,3.0869,3.0869,3.0869,3.0869,3.0905,3.0906,3.0908,3.0915,0,0,3.0912,3.0913,0,0,0,0,0,0,0,0,3.0777,3.0781,3.082,3.0822,3.0824,3.0853,3.084,3.087,3.0869,3.0852,3.0869,3.0869,3.0888,3.0891,3.0898,3.0917,3.0918,3.0912,3.0913,3.0914,3.0914,0,0,0,0,0,0,0,3.0775,3.0779,3.0823,3.0821,3.0823,3.0828,3.0833,3.0846,3.0869,3.0854,3.0855,3.086,3.0889,3.0897,3.0899,3.0919,3.0912,3.0913,3.0914,3.0915,3.095,3.095,0,0,0,0,0,0,3.077,3.0777,3.0821,3.0824,3.08,3.0829,3.0834,3.0844,3.0869,3.0873,3.086,3.0861,3.0894,3.0897,3.09,3.0913,3.0914,3.0915,3.0916,3.0949,3.095,3.095,0,0,0,0,0,0,3.0769,3.0774,3.082,3.0801,3.0807,3.083,3.0841,3.0845,3.0852,3.0874,3.0878,3.0864,3.0894,3.0898,3.0912,3.0915,3.0915,3.0917,3.0949,3.0949,3.095,3.0937,0,0,0,0,0,0,3.0767,3.0773,3.0776,3.0801,3.0808,3.0832,3.0841,3.0845,3.0855,3.0857,3.0878,3.0882,3.0895,3.091,3.0914,3.0917,3.0918,3.0949,3.0949,3.095,3.0938,3.0937,3.0937,0,0,0,0,0,3.0765,3.0769,3.0776,3.0781,3.0813,3.0832,3.0836,3.0852,3.0855,3.0859,3.0873,3.0881,3.0914,3.0911,3.0916,3.0919,3.0949,3.0949,3.095,3.0938,3.0937,3.0937,0,0,0,0,0,0,3.0741,3.0773,3.0781,3.0793,3.081,3.0835,3.084,3.085,3.0864,3.0865,3.0883,3.0888,3.0901,3.0911,3.0908,3.0929,3.0932,3.0933,3.0922,3.0922,3.0921,3.0919,3.0919,0,0,0,0,0,3.0738,3.0752,3.0778,3.0787,3.0795,3.0816,3.0825,3.0836,3.0854,3.086,3.0875,3.0891,3.0905,3.0914,3.0928,3.0939,3.0946,3.0944,3.0943,3.0943,3.0944,3.0954,3.0954,3.095,3.095,3.095,0,0,3.073,3.0749,3.0756,3.0783,3.0797,3.0811,3.0822,3.0835,3.0846,3.0861,3.0877,3.0889,3.0908,3.0922,3.0928,3.0931,3.0947,3.0943,3.0942,3.0944,3.0954,3.0955,3.0955,3.095,3.095,3.095,0,0,3.0724,3.0739,3.075,3.0765,3.0788,3.0803,3.0806,3.083,3.084,3.0856,3.087,3.0882,3.0905,3.0919,3.0929,3.0934,3.0942,3.0937,3.0935,3.0945,3.0945,3.0945,3.0949,3.095,3.0938,3.0938,3.0938,0,3.0712,3.0734,3.0754,3.0768,3.078,3.0799,3.081,3.0823,3.0848,3.0857,3.0859,3.0892,3.0905,3.0924,3.0926,3.0933,3.0937,3.0935,3.0944,3.0944,3.0945,3.0949,3.095,3.0938,3.0938,3.0938,3.0938,0,3.0719,3.0735,3.0741,3.0768,3.0781,3.0793,3.0815,3.0826,3.0837,3.0852,3.087,3.0888,3.0907,3.0912,3.0922,3.0934,3.0935,3.094,3.0944,3.0944,3.0949,3.095,3.0937,3.0937,3.0937,3.0937,0,0,3.0697,3.0739,3.074,3.0755,3.0783,3.0796,3.081,3.0832,3.0842,3.0859,3.0873,3.0894,3.0901,3.0912,3.0924,3.0932,3.0938,3.0937,3.0938,3.0939,3.0956,3.0953,3.0955,3.0945,3.0945,3.0945,3.0955,0,3.0696,3.0725,3.0745,3.0766,3.0782,3.0802,3.0815,3.0834,3.0848,3.0864,3.088,3.0896,3.0902,3.091,3.0919,3.0936,3.0942,3.0935,3.0958,3.0958,3.0954,3.0956,3.0952,3.0961,3.0957,3.0957,3.0957,0,3.0698,3.072,3.0743,3.0774,3.0781,3.0793,3.0816,3.0831,3.0854,3.0864,3.088,3.0893,3.091,3.0912,3.0937,3.0931,3.0942,3.0952,3.0953,3.0956,3.0958,3.0961,3.0964,3.0966,3.0959,3.0959,3.0959,0,3.0683,3.0717,3.0736,3.0748,3.0783,3.0791,3.0806,3.0829,3.0843,3.0863,3.0872,3.0893,3.0905,3.0921,3.094,3.0939,3.0963,3.0966,3.0973,3.0973,3.0977,3.0977,3.0983,3.0982,3.0982,3.0982,3.0982,0,3.0681,3.0695,3.0731,3.0742,3.076,3.0783,3.0799,3.0815,3.0837,3.0853,3.0869,3.0884,3.0907,3.0925,3.0939,3.0959,3.0963,3.0973,3.0977,3.0972,3.0972,3.098,3.0981,3.0982,3.0982,3.0982,3.0982,0,3.0666,3.069,3.0714,3.0747,3.0756,3.0767,3.0796,3.0809,3.0826,3.0846,3.0852,3.0879,3.0901,3.0922,3.0949,3.0959,3.098,3.0984,3.0973,3.0976,3.0982,3.0982,3.0995,3.0999,3.0993,3.0993,3.0993,0,3.0664,3.0676,3.0712,3.0726,3.0741,3.0761,3.0776,3.08,3.0815,3.0845,3.0854,3.0878,3.0898,3.0932,3.0954,3.0976,3.0982,3.0986,3.0985,3.0982,3.0985,3.0985,3.0987,3.0985,3.0985,3.0985,3.0985,0,3.0658,3.0671,3.0692,3.0719,3.0738,3.0759,3.0781,3.0791,3.0819,3.0835,3.0859,3.0876,3.0907,3.0931,3.0957,3.0972,3.0984,3.0985,3.0988,3.0984,3.0978,3.0984,3.0974,3.0984,3.0985,3.0985,3.0985,3.0985,3.0651,3.0664,3.0693,3.0718,3.0738,3.0759,3.0775,3.0796,3.0817,3.0846,3.0859,3.0884,3.0909,3.0946,3.0961,3.0981,3.0984,3.0988,3.0989,3.099,3.099,3.0975,3.0986,3.0986,3.0986,3.0986,3.0986,0,3.0648,3.0668,3.0691,3.0724,3.0744,3.0756,3.0782,3.0798,3.0821,3.0845,3.0866,3.0895,3.092,3.0945,3.0971,3.0982,3.0989,3.0989,3.0988,3.0992,3.0985,3.0981,3.0983,3.0983,3.0983,3.0983,3.0983,3.0983,3.0648,3.0673,3.0689,3.0725,3.0745,3.0772,3.0786,3.0807,3.0827,3.086,3.0882,3.0899,3.0924,3.0953,3.0976,3.0983,3.0992,3.0991,3.0999,3.0992,3.0992,3.0992,3.0989,3.0992,3.0992,3.1005,3.1005,3.1005]}]]